Weather in Rybushka

Russia / Saratov Oblast     51°16′46″N   45°26′32″E
temp.,
°C
wind,
m/s
gust,
m/s
humid.,
%
clouds,
%
prec.,
mm/h
press.,
hPa
HPBL,
m
12 may, wed
wed1201:00+8n3272100 0.0 102424
04:00+7nne3382100 0.0 102338
07:00+8n1295100 2.8 102277
10:00+9nnw2497100 5.9 1021137
13:00+13ese4894100 0.4 1021463
16:00+18se577474 0.6 10201046
19:00+16se25830 0.3 1021320
22:00+13ene229027 0.3 102115
13 may, thu
thu1301:00+12ene36949 0.0 1020102
04:00+13ene611937 0.7 1019273
07:00+13e6108960 0.2 1018301
10:00+15ese6118773 0.4 1018511
13:00+21se796870 0.1 10181230
16:00+21se5867100 0.3 1018896
19:00+20se227293 0.0 101720
22:00+17e11720 0.0 101811
14 may, fri
fri1401:00+16e1180100 0.0 101911
04:00+15e2283100 0.0 101911
07:00+16e368749 0.0 1019140
10:00+21ese575857 0.0 1019413
13:00+25se6845100 0.0 1019914
16:00+26sse59445 0.0 10191266
19:00+24se36565 0.0 1018125
22:00+18ese39625 0.0 1019132
15 may, sat
sat1501:00+16se376037 0.0 1018102
04:00+15se335372 0.0 101924
07:00+16ese37565 0.0 1019132
10:00+22se611410 0.0 1019444
13:00+26sse711355 0.0 1018975
16:00+28sse61036100 0.0 10172212
19:00+24se345017 0.0 101776
22:00+19se33515 0.0 101633
16 may, sun
sun1601:00+18se35535 0.0 101665
04:00+17sse355232 0.0 101660
07:00+18se2359100 0.0 101755
10:00+23sse3545100 0.0 1017409
13:00+26s4637100 0.0 1017939
16:00+27sse463423 0.0 10161386
19:00+25e224921 0.0 101522
22:00+20e22475 0.0 101611